20041029,836
20041101,834
20041102,844
20041104,865
20041105,873
20041108,884
20041109,881
20041110,889
20041111,898
20041112,899
20041115,886
20041116,882
20041117,874
20041118,863
20041119,867
20041122,842
20041124,841
20041125,843
20041126,841
20041129,841
20041130,845
20041201,840
20041202,852
20041203,910
20041206,899
20041207,909
20041208,890
20041209,916
20041210,929
20041213,928
20041214,941
20041215,953
20041216,943
20041217,942
20041220,947
20041221,940
20041222,954
20041224,954
20041227,955
20041228,945
20041229,963
20041230,969
20050104,942
20050105,937
20050106,927
20050107,951
20050111,947
20050112,926
20050113,925
20050114,906
20050117,909
20050118,911
20050119,923
20050120,918
20050121,916
20050124,901
20050125,887
20050126,899
20050127,912
20050128,911
20050131,908
20050201,917
20050202,923
20050203,924
20050204,925
20050207,941
20050208,941
20050209,943
20050210,920
20050214,936
20050215,930
20050216,929
20050217,938
20050218,934
20050221,933
20050222,932
20050223,909
20050224,922
20050225,933
20050228,939
20050301,906
20050302,913
20050303,918
20050304,913
20050307,897
20050308,906
20050309,894
20050310,882
20050311,885
20050314,880
20050315,918
20050316,901
20050317,892
20050318,902
20050322,906
20050323,905
20050324,914
20050325,917
20050328,917
20050329,905
20050330,893
20050331,901
20050401,900
20050404,889
20050405,891
20050406,902
20050407,924
20050408,941
20050411,931
20050412,927
20050413,937
20050414,923
20050415,919
20050418,921
20050419,915
20050420,919
20050421,912
20050422,934
20050425,920
20050426,920
20050427,925
20050428,921
20050502,886
20050506,904
20050509,907
20050510,923
20050511,931
20050512,939
20050513,944
20050516,941
20050517,938
20050518,939
20050519,943
20050520,953
20050523,949
20050524,946
20050525,948
20050526,937
20050527,930
20050530,936
20050531,938
20050601,927
20050602,938
20050603,932
20050606,911
20050607,888
20050608,880
20050609,883
20050610,897
20050613,905
20050614,923
20050615,927
20050616,926
20050617,957
20050620,970
20050621,977
20050622,951
20050623,946
20050624,922
20050627,929
20050628,923
20050629,939
20050630,945
20050701,938
20050704,939
20050705,932
20050706,943
20050707,936
20050708,943
20050711,959
20050712,934
20050713,881
20050714,859
20050715,883
20050719,884
20050720,876
20050721,900
20050722,855
20050725,833
20050726,791
20050727,808
20050728,787
20050729,770
20050801,756
20050802,767
20050803,770
20050804,769
20050805,748
20050808,747
20050809,728
20050810,730
20050811,717
20050812,720
20050815,712
20050816,715
20050817,711
20050818,713
20050819,716
20050822,716
20050823,705
20050824,716
20050825,716
20050826,717
20050829,711
20050830,726
20050831,727
20050901,728
20050902,733
20050905,722
20050906,716
20050907,732
20050908,739
20050909,734
20050912,727
20050913,739
20050914,732
20050915,724
20050916,727
20050920,731
20050921,732
20050922,718
20050926,721
20050927,726
20050928,729
20050929,731
20050930,736
20051003,750
20051004,759
20051005,758
20051006,730
20051007,700
20051011,700
20051012,688
20051013,674
20051014,687
20051017,673
20051018,678
20051019,677
20051020,685
20051021,666
20051024,667
20051025,681
20051026,682
20051027,682
20051028,657
20051031,662
20051101,678
20051102,610
20051104,615
20051107,611
20051108,588
20051109,574
20051110,579
20051111,581
20051114,582
20051115,578
20051116,574
20051117,567
20051118,569
20051121,571
20051122,575
20051124,568
20051125,560
20051128,560
20051129,533
20051130,530
20051201,528
20051202,537
20051205,536
20051206,538
20051207,532
20051208,529
20051209,528
20051212,528
20051213,521
20051214,525
20051215,506
20051216,501
20051219,498
20051220,492
20051221,498
20051222,509
20051226,504
20051227,507
20051228,505
20051229,508
20051230,507
20060104,501
20060105,506
20060106,506
20060110,515
20060111,514
20060112,512
20060113,500
20060116,495
20060117,499
20060118,498
20060119,484
20060120,487
20060123,480
20060124,474
20060125,476
20060126,475
20060127,484
20060130,491
20060131,491
20060201,493
20060202,500
20060203,496
20060206,492
20060207,491
20060208,485
20060209,489
20060210,483
20060213,479
20060214,475
20060215,464
20060216,473
20060217,487
20060220,484
20060221,484
20060222,481
20060223,486
20060224,480
20060227,483
20060228,491
20060301,482
20060302,476
20060303,476
20060306,473
20060307,474
20060308,470
20060309,472
20060310,465
20060313,468
20060314,467
20060315,466
20060316,470
20060317,464
20060320,463
20060322,458
20060323,458
20060324,459
20060327,457
20060328,453
20060329,456
20060330,460
20060331,456
20060403,466
20060404,458
20060405,455
20060406,456
20060407,442
20060410,433
20060411,432
20060412,423
20060413,429
20060414,434
20060417,432
20060418,429
20060419,429
20060420,434
20060421,426
20060424,417
20060425,409
20060426,393
20060427,387
20060428,388
20060501,381
20060502,376
20060508,368
20060509,365
20060510,397
20060511,394
20060512,386
20060515,380
20060516,380
20060517,365
20060518,364
20060519,355
20060522,362
20060523,351
20060524,348
20060525,352
20060526,355
20060529,365
20060530,367
20060531,358
20060601,364
20060602,369
20060605,368
20060606,358
20060607,360
20060608,362
20060609,392
20060612,391
20060613,384
20060614,381
20060615,385
20060616,394
20060619,391
20060620,384
20060621,379
20060622,385
20060623,389
20060626,393
20060627,392
20060628,387
20060629,386
20060630,380
20060703,383
20060704,385
20060705,387
20060706,383
20060707,381
20060710,374
20060711,372
20060712,374
20060713,379
20060714,371
20060718,364
20060719,366
20060720,378
20060721,372
20060724,367
20060725,374
20060726,380
20060727,380
20060728,364
20060731,365
20060801,364
20060802,360
20060803,363
20060804,367
20060807,360
20060808,356
20060809,354
20060810,347
20060811,346
20060814,347
20060815,355
20060816,362
20060817,368
20060818,368
20060821,368
20060822,365
20060823,362
20060824,359
20060825,360
20060828,362
20060829,367
20060830,371
20060831,373
20060901,371
20060904,373
20060905,370
20060906,372
20060907,381
20060908,379
20060911,383
20060912,385
20060913,390
20060914,391
20060915,389
20060919,390
20060920,385
20060921,387
20060922,383
20060925,380
20060926,381
20060927,383
20060928,390
20060929,393
20061002,393
20061003,391
20061004,392
20061005,398
20061006,335
20061010,340
20061011,342
20061012,341
20061013,343
20061016,344
20061017,343
20061018,344
20061019,351
20061020,325
20061023,325
20061024,322
20061025,320
20061026,317
20061027,320
20061030,314
20061031,303
20061101,305
20061102,302
20061106,300
20061107,304
20061108,300
20061109,301
20061110,296
20061113,300
20061114,294
20061115,295
20061116,298
20061117,293
20061120,293
20061121,293
20061122,276
20061124,271
20061127,269
20061128,258
20061129,258
20061130,258
20061201,254
20061204,253
20061205,255
20061206,255
20061207,256
20061208,254
20061211,258
20061212,258
20061213,256
20061214,255
20061215,258
20061218,258
20061219,255
20061220,255
20061221,256
20061222,255
20061225,257
20061226,257
20061227,258
20061228,258
20061229,258
20070104,257
20070105,258
20070109,258
20070110,248
20070111,250
20070112,255
20070115,256
20070116,246
20070117,245
20070118,244
20070119,244
20070122,245
20070123,244
20070124,244
20070125,244
20070126,243
20070129,241
20070130,241
20070131,243
20070201,242
20070202,243
20070205,241
20070206,238
20070207,238
20070208,241
20070209,242
20070213,243
20070214,243
20070215,242
20070216,240
20070219,239
20070220,240
20070221,243
20070222,243
20070223,241
20070226,239
20070227,237
20070228,226
20070301,227
20070302,221
20070305,213
20070306,210
20070307,214
20070308,210
20070309,213
20070312,215
20070313,216
20070314,209
20070315,212
20070316,212
20070319,208
20070320,211
20070322,217
20070323,216
20070326,217
20070327,216
20070328,215
20070329,211
20070330,215
20070402,216
20070403,215
20070404,219
20070405,220
20070406,222
20070409,223
20070410,223
20070411,222
20070412,220
20070413,223
20070416,225
20070417,228
20070418,226
20070419,225
20070420,227
20070423,227
20070424,225
20070425,224
20070426,226
20070427,227
20070501,220
20070502,214
20070507,217
20070508,217
20070509,216
20070510,217
20070511,210
20070514,213
20070515,213
20070516,211
20070517,214
20070518,213
20070521,214
20070522,216
20070523,217
20070524,217
20070525,214
20070528,215
20070529,213
20070530,214
20070531,213
20070601,214
20070604,210
20070605,210
20070606,210
20070607,202
20070608,196
20070611,197
20070612,198
20070613,196
20070614,199
20070615,200
20070618,203
20070619,202
20070620,201
20070621,199
20070622,199
20070625,195
20070626,192
20070627,191
20070628,195
20070629,194
20070702,193
20070703,194
20070704,194
20070705,195
20070706,195
20070709,187
20070710,188
20070711,185
20070712,186
20070713,188
20070717,184
20070718,184
20070719,185
20070720,187
20070723,182
20070724,181
20070725,178
20070726,184
20070727,180
20070730,177
20070731,178
20070801,175
20070802,175
20070803,199
20070806,193
20070807,198
20070808,202
20070809,207
20070810,195
20070813,191
20070814,191
20070815,188
20070816,186
20070817,180
20070820,183
20070821,185
20070822,185
20070823,187
20070824,187
20070827,189
20070828,186
20070829,181
20070830,187
20070831,189
20070903,190
20070904,191
20070905,196
20070906,194
20070907,196
20070910,189
20070911,189
20070912,196
20070913,197
20070914,197
20070918,193
20070919,199
20070920,199
20070921,196
20070925,198
20070926,198
20070927,199
20070928,198
20071001,197
20071002,200
20071003,200
20071004,202
20071005,199
20071009,203
20071010,204
20071011,206
20071012,198
20071015,202
20071016,203
20071017,200
20071018,201
20071019,198
20071022,190
20071023,191
20071024,196
20071025,191
20071026,191
20071029,192
20071030,192
20071031,192
20071101,196
20071102,191
20071105,193
20071106,191
20071107,193
20071108,188
20071109,188
20071112,182
20071113,178
20071114,182
20071115,182
20071116,180
20071119,180
20071120,175
20071121,175
20071122,171
20071126,173
20071127,168
20071128,173
20071129,179
20071130,180
20071203,180
20071204,177
20071205,175
20071206,177
20071207,180
20071210,177
20071211,176
20071212,171
20071213,174
20071214,171
20071217,171
20071218,166
20071219,168
20071220,168
20071221,169
20071225,173
20071226,173
20071227,174
20071228,171
20080104,161
20080107,158
20080108,161
20080109,161
20080110,163
20080111,165
20080115,163
20080116,157
20080117,158
20080118,158
20080121,155
20080122,134
20080123,132
20080124,130
20080125,129
20080128,128
20080129,129
20080130,130
20080131,127
20080201,128
20080204,130
20080205,130
20080206,127
20080207,126
20080208,127
20080212,127
20080213,128
20080214,130
20080215,129
20080218,126
20080219,126
20080220,125
20080221,122
20080222,121
20080225,119
20080226,123
20080227,124
20080228,121
20080229,116
20080303,112
20080304,113
20080305,112
20080306,113
20080307,109
20080310,108
20080311,103
20080312,106
20080313,104
20080314,105
20080317,99
20080318,96
20080319,101
20080321,102
20080324,102
20080325,106
20080326,107
20080327,106
20080328,106
20080331,106
20080401,108
20080402,111
20080403,109
20080404,109
20080407,111
20080408,111
20080409,111
20080410,108
20080411,111
20080414,108
20080415,107
20080416,108
20080417,110
20080418,109
20080421,108
20080422,106
20080423,105
20080424,106
20080425,107
20080428,108
20080430,106
20080501,106
20080502,107
20080507,107
20080508,105
20080509,104
20080512,104
20080513,105
20080514,105
20080515,106
20080516,106
20080519,106
20080520,105
20080521,105
20080522,102
20080523,105
20080526,103
20080527,103
20080528,105
20080529,106
20080530,109
20080602,107
20080603,105
20080604,105
20080605,107
20080606,110
20080609,106
20080610,107
20080611,107
20080612,104
20080613,105
20080616,107
20080617,108
20080618,107
20080619,106
20080620,108
20080623,107
20080624,107
20080625,107
20080626,109
20080627,106
20080630,106
20080701,106
20080702,109
20080703,109
20080704,107
20080707,107
20080708,107
20080709,111
20080710,110
20080711,113
20080714,112
20080715,111
20080716,112
20080717,113
20080718,115
20080722,115
20080723,116
20080724,117
20080725,118
20080728,121
20080729,120
20080730,122
20080731,121
20080801,124
20080804,122
20080805,122
20080806,123
20080807,125
20080808,122
20080811,125
20080812,125
20080813,124
20080814,124
20080815,127
20080818,127
20080819,125
20080820,123
20080821,123
20080822,119
20080825,119
20080826,118
20080827,117
20080828,117
20080829,118
20080901,116
20080902,116
20080903,115
20080904,114
20080905,107
20080908,108
20080909,107
20080910,105
20080911,106
20080912,107
20080916,102
20080917,106
20080918,100
20080919,103
20080922,106
20080924,101
20080925,103
20080926,105
20080929,106
20080930,97
20081001,102
20081002,101
20081003,96
20081006,95
20081007,84
20081008,82
20081009,80
20081010,75
20081014,84
20081015,80
20081016,73
20081017,77
20081020,78
20081021,81
20081022,78
20081023,72
20081024,72
20081027,68
20081028,63
20081029,69
20081030,72
20081031,74
20081104,78
20081105,80
20081106,76
20081107,73
20081110,77
20081111,76
20081112,74
20081113,69
20081114,75
20081117,70
20081118,70
20081119,69
20081120,65
20081121,60
20081125,63
20081126,62
20081127,64
20081128,64
20081201,64
20081202,59
20081203,60
20081204,61
20081205,60
20081208,62
20081209,63
20081210,62
20081211,63
20081212,61
20081215,62
20081216,60
20081217,63
20081218,62
20081219,64
20081222,65
20081224,65
20081225,64
20081226,65
20081229,65
20081230,64
20090105,68
20090106,69
20090107,69
20090108,68
20090109,67
20090113,64
20090114,65
20090115,64
20090116,66
20090119,68
20090120,68
20090121,64
20090122,66
20090123,65
20090126,64
20090127,64
20090128,65
20090129,66
20090130,65
20090202,65
20090203,65
20090204,68
20090205,68
20090206,70
20090209,71
20090210,69
20090212,67
20090213,67
20090216,67
20090217,67
20090218,66
20090219,66
20090220,65
20090223,64
20090224,63
20090225,66
20090226,66
20090227,63
20090302,60
20090303,57
20090304,57
20090305,59
20090306,56
20090309,56
20090310,56
20090311,58
20090312,56
20090313,60
20090316,61
20090317,60
20090318,63
20090319,61
20090323,60
20090324,64
20090325,62
20090326,63
20090327,66
20090330,64
20090331,63
20090401,63
20090402,61
20090403,63
20090406,62
20090407,62
20090408,61
20090409,61
20090410,62
20090413,62
20090414,62
20090415,60
20090416,60
20090417,60
20090420,60
20090421,58
20090422,58
20090423,57
20090424,57
20090427,58
20090428,57
20090430,60
20090501,58
20090507,57
20090508,58
20090511,58
20090512,58
20090513,57
20090514,56
20090515,56
20090518,55
20090519,56
20090520,56
20090521,56
20090522,55
20090525,55
20090526,56
20090527,57
20090528,57
20090529,57
20090601,57
20090602,58
20090603,59
20090604,60
20090605,60
20090608,61
20090609,60
20090610,59
20090611,59
20090612,59
20090615,60
20090616,58
20090617,57
20090618,58
20090619,59
20090622,59
20090623,58
20090624,58
20090625,59
20090626,60
20090629,60
20090630,61
20090701,61
20090702,61
20090703,59
20090706,59
20090707,58
20090708,57
20090709,56
20090710,56
20090713,56
20090714,57
20090715,57
20090716,58
20090717,58
20090721,58
20090722,59
20090723,59
20090724,62
20090727,62
20090728,63
20090729,63
20090730,63
20090731,64
20090803,63
20090804,64
20090805,64
20090806,62
20090807,61
20090810,62
20090811,62
20090812,61
20090813,62
20090814,61
20090817,60
20090818,59
20090819,59
20090820,59
20090821,60
20090824,61
20090825,60
20090826,60
20090827,61
20090828,61
20090831,60
20090901,58
20090902,58
20090903,58
20090904,58
20090907,59
20090908,59
20090909,59
20090910,59
20090911,59
20090914,59
20090915,60
20090916,60
20090917,60
20090918,61
20090924,60
20090925,59
20090928,58
20090929,59
20090930,59
20091001,59
20091002,61
20091005,61
20091006,61
20091007,61
20091008,60
20091009,60
20091013,61
20091014,61
20091015,61
20091016,62
20091019,62
20091020,62
20091021,60
20091022,60
20091023,60
20091026,63
20091027,62
20091028,61
20091029,58
20091030,60
20091102,58
20091104,59
20091105,59
20091106,60
20091109,60
20091110,60
20091111,60
20091112,61
20091113,61
20091116,60
20091117,61
20091118,60
20091119,60
20091120,59
20091124,60
20091125,60
20091126,59
20091127,59
20091130,58
20091201,58
20091202,59
20091203,98
20091204,105
20091207,112
20091208,127
20091209,142
20091210,174
20091211,194
20091214,209
20091215,220
20091216,226
20091217,246
20091218,277
20091221,313
20091222,332
20091224,356
20091225,362
20091228,393
20091229,394
20091230,418
20100104,442
20100105,456
20100106,445
20100107,426
20100108,459
20100112,481
20100113,472
20100114,467
20100115,458
20100118,447
20100119,445
20100120,453
20100121,450
20100122,434
20100125,432
20100126,425
20100127,426
20100128,434
20100129,432
20100201,437
20100202,435
20100203,443
20100204,442
20100205,413
20100208,393
20100209,390
20100210,395
20100212,400
20100215,402
20100216,406
20100217,407
20100218,414
20100219,411
20100222,399
20100223,365
20100224,356
20100225,355
20100226,351
20100301,346
20100302,355
20100303,355
20100304,349
20100305,350
20100308,362
20100309,363
20100310,364
20100311,375
20100312,376
20100315,376
20100316,346
20100317,324
20100318,315
20100319,296
20100323,274
20100324,269
20100325,257
20100326,243
20100329,230
20100330,214
20100331,188
20100401,179
20100402,180
20100405,174
20100406,175
20100407,171
20100408,167
20100409,156
20100412,154
20100413,151
20100414,149
20100415,126
20100416,126
20100419,124
20100420,127
20100421,133
20100422,131
20100423,124
20100426,134
20100427,112
20100428,109
20100430,108
20100506,100
20100507,94
20100510,92
20100511,95
20100512,95
20100513,98
20100514,96
20100517,94
20100518,94
20100519,93
20100520,93
20100521,90
20100524,89
20100525,89
20100526,89
20100527,89
20100528,92
20100531,91
20100601,91
20100602,90
20100603,94
20100604,96
20100607,90
20100608,90
20100609,96
20100610,95
20100611,99
20100614,100
20100615,101
20100616,104
20100617,104
20100618,104
20100621,105
20100622,104
20100623,101
20100624,100
20100625,99
20100628,100
20100629,99
20100630,94
20100701,93
20100702,90
20100705,91
20100706,90
20100707,89
20100708,91
20100709,93
20100712,94
20100713,94
20100714,96
20100715,95
20100716,94
20100720,91
20100721,91
20100722,90
20100723,92
20100726,95
20100727,97
20100728,97
20100729,95
20100730,94
20100802,96
20100803,98
20100804,97
20100805,99
20100806,99
20100809,99
20100810,100
20100811,98
20100812,95
20100813,96
20100816,95
20100817,95
20100818,96
20100819,96
20100820,94
20100823,93
20100824,92
20100825,90
20100826,91
20100827,90
20100830,93
20100831,91
20100901,90
20100902,93
20100903,92
20100906,93
20100907,93
20100908,92
20100909,100
20100910,101
20100913,102
20100914,108
20100915,110
20100916,113
20100917,124
20100921,126
20100922,125
20100924,124
20100927,125
20100928,124
20100929,125
20100930,129
20101001,122
20101004,122
20101005,115
20101006,110
20101007,114
20101008,114
20101012,113
20101013,113
20101014,112
20101015,115
20101018,115
20101019,116
20101020,114
20101021,114
20101022,120
20101025,127
20101026,129
20101027,132
20101028,144
20101029,144
20101101,150
20101102,150
20101104,152
20101105,151
20101108,150
20101109,150
20101110,149
20101111,155
20101112,155
20101115,153
20101116,156
20101117,155
20101118,155
20101119,158
20101122,158
20101124,155
20101125,158
20101126,158
20101129,158
20101130,157
20101201,155
20101202,158
20101203,150
20101206,149
20101207,148
20101208,151
20101209,152
20101210,152
20101213,154
20101214,152
20101215,148
20101216,137
20101217,132
20101220,131
20101221,131
20101222,126
20101224,95
20101227,83
20101228,83
20101229,82
20101230,78
20110104,79
20110105,79
20110106,81
20110107,73
20110111,72
20110112,73
20110113,73
20110114,73
20110117,73
20110118,73
20110119,73
20110120,71
20110121,71
20110124,71
20110125,71
20110126,71
20110127,71
20110128,72
20110131,69
20110201,70
20110202,70
20110203,70
20110204,70
20110207,70
20110208,70
20110209,71
20110210,71
20110214,72
20110215,72
20110216,72
20110217,72
20110218,72
20110221,72
20110222,63
20110223,61
20110224,61
20110225,61
20110228,61
20110301,62
20110302,61
20110303,62
20110304,63
20110307,64
20110308,63
20110309,64
20110310,64
20110311,63
20110314,63
20110315,62
20110316,61
20110317,53
20110318,54
20110322,55
20110323,54
20110324,54
20110325,55
20110328,55
20110329,55
20110330,56
20110331,57
20110401,58
20110404,58
20110405,61
20110406,62
20110407,63
20110408,62
20110411,62
20110412,62
20110413,61
20110414,61
20110415,62
20110418,62
20110419,60
20110420,60
20110421,61
20110422,60
20110425,61
20110426,60
20110427,61
20110428,61
20110502,60
20110506,58
20110509,59
20110510,59
20110511,60
20110512,60
20110513,60
20110516,60
20110517,59
20110518,59
20110519,60
20110520,59
20110523,59
20110524,58
20110525,57
20110526,57
20110527,57
20110530,54
20110531,54
20110601,55
20110602,54
20110603,54
20110606,53
20110607,52
20110608,53
20110609,52
20110610,52
20110613,51
20110614,51
20110615,51
20110616,51
20110617,51
20110620,50
20110621,50
20110622,51
20110623,51
20110624,51
20110627,51
20110628,51
20110629,53
20110630,53
20110701,53
20110704,53
20110705,53
20110706,53
20110707,54
20110708,54
20110711,54
20110712,52
20110713,52
20110714,52
20110715,52
20110719,51
20110720,52
20110721,50
20110722,50
20110725,50
20110726,49
20110727,49
20110728,47
20110729,47
20110801,47
20110802,47
20110803,45
20110804,45
20110805,41
20110808,40
20110809,37
20110810,39
20110811,37
20110812,38
20110815,39
20110816,41
20110817,41
20110818,40
20110819,38
20110822,38
20110823,38
20110824,39
20110825,39
20110826,39
20110829,39
20110830,41
20110831,41
20110901,41
20110902,41
20110905,40
20110906,39
20110907,40
20110908,42
20110909,42
20110912,41
20110913,40
20110914,40
20110915,41
20110916,41
20110920,41
20110921,41
20110922,40
20110926,39
20110927,40
20110928,40
20110929,39
20110930,39
20111003,39
20111004,37
20111005,38
20111006,39
20111007,41
20111011,41
20111012,41
20111013,74
20111014,78
20111017,83
20111018,104
20111019,117
20111020,149
20111021,199
20111024,271
20111025,314
20111026,341
20111027,435
20111028,641
20111031,870
20111101,1148
20111102,1369
20111104,1407
20111107,1422
20111108,1436
20111109,1471
20111110,1478
20111111,1492
20111114,1510
20111115,1499
20111116,1512
20111117,1501
20111118,1492
20111121,1493
20111122,1538
20111124,1532
20111125,1550
20111128,1541
20111129,1666
20111130,1715
20111201,1842
20111202,1951
20111205,1970
20111206,1957
20111207,1951
20111208,1943
20111209,1922
20111212,1958
20111213,1903
20111214,1847
20111215,1841
20111216,1843
20111219,1864
20111220,1863
20111221,1916
20111222,1940
20111226,1956
20111227,1982
20111228,1995
20111229,1998
20111230,2067
20120104,2105
20120105,2136
20120106,2157
20120110,2188
20120111,2228
20120112,2214
20120113,2196
20120116,2178
20120117,2177
20120118,2183
20120119,2160
20120120,2151
20120123,2109
20120124,2103
20120125,2144
20120126,2205
20120127,2183
20120130,2184
20120131,2177
20120201,2295
20120202,2354
20120203,2382
20120206,2420
20120207,2443
20120208,2449
20120209,2434
20120210,2439
20120213,2388
20120214,2377
20120215,2379
20120216,2346
20120217,2371
20120220,2318
20120221,2271
20120222,2251
20120223,2213
20120224,2216
20120227,2281
20120228,2300
20120229,2344
20120301,2385
20120302,2424
20120305,2401
20120306,2372
20120307,2295
20120308,2308
20120309,2336
20120312,2363
20120313,2309
20120314,2345
20120315,2239
20120316,2208
20120319,2168
20120321,2144
20120322,2153
20120323,2148
20120326,2176
20120327,2263
20120328,2280
20120329,2253
20120330,2266
20120402,2308
20120403,2470
20120404,2709
20120405,2778
20120406,2882
20120409,2917
20120410,2880
20120411,2821
20120412,2921
20120413,2904
20120416,2884
20120417,2945
20120418,3071
20120419,3163
20120420,3250
20120423,3395
20120424,3514
20120425,3681
20120426,3938
20120427,4178
20120501,4477
20120502,4969
20120507,5191
20120508,5485
20120509,5571
20120510,5623
20120511,5784
20120514,5841
20120515,5950
20120516,6041
20120517,6052
20120518,5948
20120521,5930
20120522,6132
20120523,6191
20120524,6158
20120525,6310
20120528,6391
20120529,6511
20120530,6541
20120531,6621
20120601,6698
20120604,6641
20120605,6893
20120606,7003
20120607,7201
20120608,7282
20120611,7421
20120612,7444
20120613,7484
20120614,7507
20120615,7676
20120618,7794
20120619,7869
20120620,7936
20120621,8060
20120622,8031
20120625,8277